Location: Huesca
(42.1318°N, 0.4078°W)
Time: 18:28:09
(UTC+02:00)

ITAMSAT 1 - Pass Details

Date: 01 May 2024
Orbit: 781 x 796 km, 98.8° (Epoch: 27 May)

Event Time Altitude Azimuth Distance (km) Brightness Sun altitude
Exits shadow 23:07:02 13° 198° (SSW) 2,153 9.7 -20.2°
Maximum altitude 23:11:15 37° 262° (W) 1,223 8.9 -20.7°
Drops below altitude 10° 23:16:05 10° 330° (NNW) 2,371 11.2 -21.3°
Sets 23:18:35 0° 338° (NNW) 3,303 12.1 -21.7°
